TimeAST,TemperatureF,Dew PointF,Humidity,Sea Level PressureIn,VisibilityMPH,Wind Direction,Wind SpeedMPH,Gust SpeedMPH,PrecipitationIn,Events,Conditions,WindDirDegrees,DateUTC
12:55 AM,83.8,62.1,48,29.85,6.2,East,5.8,-,N/A,,Clear,80,2012-10-10 21:55:00
1:55 AM,81.3,64.0,56,29.85,6.2,ENE,3.5,-,N/A,,Clear,70,2012-10-10 22:55:00
2:55 AM,80.2,68.9,68,29.85,5.6,ESE,3.5,-,N/A,,Haze,110,2012-10-10 23:55:00
3:55 AM,79.7,71.1,75,29.86,5.6,ENE,4.6,-,N/A,,Haze,70,2012-10-11 00:55:00
4:55 AM,79.0,72.5,80,29.87,5.6,ENE,3.5,-,N/A,,Haze,70,2012-10-11 01:55:00
5:55 AM,73.0,64.8,75,29.89,5.0,WSW,5.8,-,N/A,,Haze,240,2012-10-11 02:55:00
6:55 AM,77.9,66.0,67,29.91,6.2,WSW,4.6,-,N/A,,Clear,240,2012-10-11 03:55:00
7:55 AM,85.8,73.6,67,29.92,6.2,SSW,3.5,-,N/A,,Clear,210,2012-10-11 04:55:00
8:55 AM,90.7,76.1,62,29.93,6.2,SSE,8.1,-,N/A,,Clear,160,2012-10-11 05:55:00
9:55 AM,95.5,68.5,41,29.92,6.2,SSE,8.1,-,N/A,,Clear,150,2012-10-11 06:55:00
10:55 AM,99.0,59.4,27,29.90,6.2,SE,3.5,-,N/A,,Clear,140,2012-10-11 07:55:00
11:55 AM,100.4,52.2,20,29.87,6.2,Calm,Calm,-,N/A,,Partly Cloudy,0,2012-10-11 08:55:00
12:55 PM,101.7,46.6,15,29.85,6.2,Variable,4.6,-,N/A,,Clear,0,2012-10-11 09:55:00
1:55 PM,102.0,45.1,14,29.83,-9999.0,North,6.9,-,N/A,,Haze,350,2012-10-11 10:55:00
1:56 PM,102.2,44.6,14,29.84,1.7,North,4.6,-,N/A,,Haze,350,2012-10-11 10:56:00
2:55 PM,101.5,44.6,14,29.83,6.2,Calm,Calm,-,N/A,,Clear,0,2012-10-11 11:55:00
3:55 PM,101.7,46.6,15,29.83,6.2,Calm,Calm,-,N/A,,Clear,0,2012-10-11 12:55:00
4:25 PM,98.6,50.0,19,29.83,6.2,ENE,13.8,20.7,N/A,,Clear,70,2012-10-11 13:25:00
4:55 PM,97.7,54.7,24,29.84,6.2,ESE,12.7,-,N/A,,Clear,120,2012-10-11 13:55:00
5:55 PM,92.7,61.9,36,29.86,6.2,SSE,8.1,-,N/A,,Clear,150,2012-10-11 14:55:00
6:55 PM,90.5,68.0,47,29.87,6.2,NNE,5.8,-,N/A,,Clear,20,2012-10-11 15:55:00
7:55 PM,89.8,59.4,36,29.88,6.2,ENE,6.9,-,N/A,,Clear,60,2012-10-11 16:55:00
8:55 PM,87.6,66.6,49,29.89,6.2,East,5.8,-,N/A,,Clear,80,2012-10-11 17:55:00
9:55 PM,85.1,67.6,56,29.89,6.2,ENE,4.6,-,N/A,,Clear,70,2012-10-11 18:55:00
10:55 PM,83.3,68.9,62,29.89,6.2,Calm,Calm,-,N/A,,Clear,0,2012-10-11 19:55:00
11:55 PM,82.8,70.5,66,29.88,6.2,Calm,Calm,-,N/A,,Clear,0,2012-10-11 20:55:00